Tracking 17149 objects as of 22-May-2015
HD Live streaming from Space Station

ASTRA 1D

Track ASTRA 1D now!
ASTRA 1D is classified as:


NORAD ID: 23331
Int'l Code: 1994-070A
Perigee: 35,774.8 km
Apogee: 35,812.3 km
Inclination: 6.3 °
Period: 1,436.1 minutes
Semi major axis: 42164 km
RCS: 75.2376 m2 (large)
Launch date: November 1, 1994
Source: Luxembourg (LUXE)

Primarily backup for Astra 1B and 1C; 18 Ku-band transponders; continental Europe.
Your satellite tracking list
Your tracking list is empty





NASA's NSSDC Master Catalog

Two Line Element Set (TLE):
1 23331U 94070A   15142.14271376 -.00000292  00000-0  00000+0 0  9999
2 23331 006.3405 055.3236 0004456 005.4350 162.4619 01.00272516 75669

Source of the keplerian elements: AFSPC

N2YO: 358